GW1480 Weather Reports


Display with metric or nautical units.
time (UTC)temp
F
wind
direction
speed
MPH
gust
MPH
rain 1hr
in
rain 24hr
in
rain mn
in
humidity
%
barometer
mb
20260831005714 73 235 0.0 0.0 0.00 0.00 0.00 99 1019.3
20260831005124 73 236 0.0 0.0 0.00 0.00 0.00 99 1019.3
20260831004536 74 238 0.0 0.0 0.00 0.00 0.00 99 1018.9
20260831003948 74 235 0.0 0.0 0.00 0.00 0.00 99 1018.9
20260831003307 74 234 0.0 0.0 0.00 0.00 0.00 99 1018.9
20260831002133 75 236 0.0 0.0 0.00 0.00 0.00 99 1018.9
20260831001541 75 235 0.0 0.0 0.00 0.00 0.00 99 1018.9
20260831000949 75 235 0.0 0.0 0.00 0.00 0.00 99 1018.9
20260831000313 76 234 0.0 0.0 0.00 0.00 0.00 99 1018.6
20260830235711 76 234 0.0 0.0 0.00 0.00 0.00 99 1018.6
20260830235118 76 236 0.0 0.0 0.00 0.00 0.00 99 1018.6
20260830234533 77 237 0.0 0.0 0.00 0.00 0.00 98 1018.2
20260830233947 77 234 0.0 0.0 0.00 0.00 0.00 98 1018.6
20260830233325 77 234 0.0 0.0 0.00 0.00 0.00 97 1018.2
20260830232720 78 242 0.0 0.0 0.00 0.00 0.00 97 1018.6
20260830232140 78 242 0.0 0.0 0.00 0.00 0.00 97 1018.2
20260830230919 79 241 0.0 0.0 0.00 0.00 0.00 96 1018.2
20260830225747 80 249 0.0 0.0 0.00 0.00 0.00 95 1018.2
20260830225112 80 246 0.0 0.0 0.00 0.00 0.00 95 1018.6
20260830224549 79 243 0.0 0.0 0.00 0.00 0.00 94 1018.6
20260830223926 79 236 0.0 0.0 0.00 0.00 0.00 92 1018.2
20260830223313 79 233 0.0 0.0 0.00 0.00 0.00 93 1018.6
20260830222734 79 247 0.0 0.0 0.00 0.00 0.00 94 1018.6
20260830222139 79 234 0.0 0.0 0.00 0.00 0.00 96 1018.6
20260830221521 79 210 0.0 0.0 0.00 0.00 0.00 95 1018.6
20260830220940 80 249 0.0 0.0 0.00 0.00 0.00 95 1018.9
20260830220335 80 235 0.0 0.0 0.00 0.00 0.00 94 1018.9
20260830215123 81 243 0.0 0.0 0.00 0.00 0.00 93 1018.6
20260830214548 82 235 0.0 0.0 0.00 0.00 0.00 93 1018.6
20260830213940 82 237 0.0 0.0 0.00 0.00 0.00 91 1018.6
20260830213322 83 244 0.0 0.0 0.00 0.00 0.00 90 1018.6
20260830212747 84 231 0.0 0.0 0.00 0.00 0.00 90 1018.9
20260830211511 84 228 0.0 0.0 0.00 0.00 0.00 83 1018.6
20260830210931 84 215 0.0 0.0 0.00 0.00 0.00 81 1018.6
20260830210342 84 235 0.0 0.0 0.00 0.00 0.00 78 1018.9
20260830205743 82 219 0.0 0.0 0.00 0.00 0.00 77 1018.9
20260830205138 81 233 3.0 7.0 0.00 0.00 0.00 78 1018.9
20260830204535 80 232 0.0 0.0 0.00 0.00 0.00 82 1018.9
20260830203340 80 242 0.0 0.0 0.00 0.00 0.00 91 1018.9
20260830202715 80 238 0.0 0.0 0.00 0.00 0.00 89 1018.9
20260830202137 80 241 0.0 0.0 0.00 0.00 0.00 89 1019.3
20260830201525 80 252 0.0 0.0 0.00 0.00 0.00 86 1019.3
20260830200319 81 222 0.0 0.0 0.00 0.00 0.00 85 1019.6
20260830195731 82 244 0.0 2.0 0.00 0.00 0.00 83 1019.6
20260830195138 83 207 1.0 5.0 0.00 0.00 0.00 82 1019.3
20260830194541 85 223 0.0 2.0 0.00 0.00 0.00 90 1019.3
20260830193943 86 245 0.0 0.0 0.00 0.00 0.00 86 1019.3
20260830192722 88 255 3.0 5.0 0.00 0.00 0.00 73 1019.3
20260830192122 88 216 0.0 0.0 0.00 0.00 0.00 75 1019.6
20260830190935 89 251 0.0 0.0 0.00 0.00 0.00 77 1019.6
20260830190313 90 219 0.0 0.0 0.00 0.00 0.00 72 1019.6
20260830185707 89 260 0.0 0.0 0.00 0.00 0.00 65 1019.6
20260830185132 89 146 0.0 2.0 0.00 0.00 0.00 67 1019.6
20260830184508 89 194 5.0 7.0 0.00 0.00 0.00 65 1019.6
20260830183934 89 252 0.0 0.0 0.00 0.00 0.00 69 1019.9
20260830182726 88 73 0.0 0.0 0.00 0.00 0.00 69 1019.9
20260830182136 88 233 0.0 2.0 0.00 0.00 0.00 72 1020.3
20260830181538 88 290 0.0 0.0 0.00 0.00 0.00 68 1020.3
20260830180945 88 219 0.0 0.0 0.00 0.00 0.00 69 1020.3
20260830180306 87 275 0.0 0.0 0.00 0.00 0.00 69 1020.6
20260830175715 87 330 4.0 5.0 0.00 0.00 0.00 69 1020.6
20260830175110 88 332 0.0 2.0 0.00 0.00 0.00 74 1020.6
20260830174518 88 242 0.0 0.0 0.00 0.00 0.00 74 1020.9
20260830173949 88 6 0.0 0.0 0.00 0.00 0.00 75 1020.9
20260830172728 88 240 0.0 0.0 0.00 0.00 0.00 68 1020.9
20260830172120 87 220 2.0 5.0 0.00 0.00 0.00 72 1020.9
20260830171536 86 274 2.0 2.0 0.00 0.00 0.00 75 1020.9
20260830170928 86 296 0.0 0.0 0.00 0.00 0.00 72 1021.3
20260830165114 85 315 2.0 5.0 0.00 0.00 0.00 74 1021.3
20260830164532 85 33 3.0 5.0 0.00 0.00 0.00 75 1021.3
20260830163936 84 238 3.0 5.0 0.00 0.00 0.00 78 1021.3
20260830163343 85 28 4.0 5.0 0.00 0.00 0.00 76 1021.3
20260830162709 85 318 0.0 0.0 0.00 0.00 0.00 78 1021.3
20260830162131 84 359 7.0 10.0 0.00 0.00 0.00 75 1021.6
20260830161529 84 29 3.0 5.0 0.00 0.00 0.00 76 1021.6
20260830160925 84 242 4.0 5.0 0.00 0.00 0.00 76 1021.6
20260830160320 84 173 1.0 5.0 0.00 0.00 0.00 77 1021.6
20260830155737 84 344 4.0 7.0 0.00 0.00 0.00 76 1021.6
20260830155150 84 163 4.0 7.0 0.00 0.00 0.00 76 1021.6
20260830154519 84 5 4.0 5.0 0.00 0.00 0.00 76 1021.6
20260830153924 84 305 0.0 0.0 0.00 0.00 0.00 76 1021.3
20260830153326 84 283 4.0 5.0 0.00 0.00 0.00 76 1021.6
20260830152727 84 207 0.0 0.0 0.00 0.00 0.00 76 1021.3
20260830152108 84 259 0.0 0.0 0.00 0.00 0.00 78 1021.3
20260830150945 84 346 0.0 0.0 0.00 0.00 0.00 76 1021.3
20260830150326 84 43 0.0 0.0 0.00 0.00 0.00 76 1021.6
20260830145718 83 297 3.0 5.0 0.00 0.00 0.00 76 1021.6
20260830145109 83 73 2.0 2.0 0.00 0.00 0.00 75 1021.3
20260830144516 83 205 0.0 0.0 0.00 0.00 0.00 78 1021.3
20260830143941 82 191 0.0 0.0 0.00 0.00 0.00 78 1021.3
20260830143345 82 236 0.0 0.0 0.00 0.00 0.00 78 1021.6
20260830142747 82 63 4.0 5.0 0.00 0.00 0.00 77 1021.3
20260830141510 80 192 0.0 0.0 0.00 0.00 0.00 78 1021.3
20260830140923 80 101 3.0 5.0 0.00 0.00 0.00 79 1020.9
20260830140309 80 349 2.0 5.0 0.00 0.00 0.00 80 1021.3
20260830135728 79 91 0.0 0.0 0.00 0.00 0.00 86 1021.3
20260830135109 78 220 0.0 0.0 0.00 0.00 0.00 87 1021.3
20260830134546 78 80 3.0 5.0 0.00 0.00 0.00 83 1021.3
20260830133914 76 108 0.0 0.0 0.00 0.00 0.00 85 1020.9
20260830133325 75 206 0.0 0.0 0.00 0.00 0.00 88 1020.9
20260830132712 74 226 0.0 0.0 0.00 0.00 0.00 90 1020.9
20260830132145 73 170 0.0 0.0 0.00 0.00 0.00 91 1020.9
20260830131541 72 169 0.0 0.0 0.00 0.00 0.00 95 1020.9
20260830130915 71 256 0.0 0.0 0.00 0.00 0.00 96 1020.9
20260830130337 70 177 0.0 0.0 0.00 0.00 0.00 99 1020.9
20260830125109 68 203 0.0 0.0 0.00 0.00 0.00 99 1021.3
20260830124549 68 233 0.0 0.0 0.00 0.00 0.00 99 1021.3
20260830123916 67 177 0.0 0.0 0.00 0.00 0.00 99 1021.3
20260830123313 66 226 0.0 0.0 0.00 0.00 0.00 99 1021.3
20260830122744 66 102 0.0 0.0 0.00 0.00 0.00 99 1020.9
20260830122117 65 190 0.0 0.0 0.00 0.00 0.00 99 1021.3
20260830121519 65 200 0.0 0.0 0.00 0.00 0.00 99 1021.3
20260830120951 65 129 0.0 0.0 0.00 0.00 0.00 99 1020.9
20260830115705 65 222 0.0 0.0 0.00 0.00 0.00 99 1020.9
20260830115120 65 230 0.0 0.0 0.00 0.00 0.00 99 1020.6
20260830113919 65 213 0.0 0.0 0.00 0.00 0.00 99 1020.9
20260830113319 65 213 0.0 0.0 0.00 0.00 0.00 99 1020.9
20260830112724 65 144 0.0 0.0 0.00 0.00 0.00 99 1020.9
20260830112115 65 153 0.0 0.0 0.00 0.00 0.00 99 1020.6
20260830111515 65 192 0.0 0.0 0.00 0.00 0.00 99 1020.6
20260830110347 65 228 0.0 0.0 0.00 0.00 0.00 99 1020.6
20260830105715 65 289 0.0 0.0 0.00 0.00 0.00 99 1020.6
20260830105120 65 171 0.0 0.0 0.00 0.00 0.00 99 1020.6
20260830104543 65 232 0.0 0.0 0.00 0.00 0.00 99 1020.6
20260830103927 65 189 0.0 0.0 0.00 0.00 0.00 99 1020.6
20260830103349 65 209 0.0 0.0 0.00 0.00 0.00 99 1020.6
20260830102111 65 141 0.0 0.0 0.00 0.00 0.00 99 1020.6
20260830100930 65 198 0.0 0.0 0.00 0.00 0.00 99 1020.6
20260830100312 65 183 0.0 0.0 0.00 0.00 0.00 99 1020.6
20260830095743 65 190 0.0 0.0 0.00 0.00 0.00 99 1020.6
20260830095115 65 194 0.0 0.0 0.00 0.00 0.00 99 1020.6
20260830094559 65 196 0.0 0.0 0.00 0.00 0.00 99 1020.6
20260830093932 65 227 0.0 0.0 0.00 0.00 0.00 99 1020.6
20260830093318 65 211 0.0 0.0 0.00 0.00 0.00 99 1020.6
20260830092729 65 224 0.0 0.0 0.00 0.00 0.00 99 1020.6
20260830092127 65 219 0.0 0.0 0.00 0.00 0.00 99 1020.6
20260830091515 65 218 0.0 0.0 0.00 0.00 0.00 99 1020.6
20260830090949 65 220 0.0 0.0 0.00 0.00 0.00 99 1020.6
20260830090349 65 210 0.0 0.0 0.00 0.00 0.00 99 1020.6
20260830085718 65 193 0.0 0.0 0.00 0.00 0.00 99 1020.6
20260830085123 65 171 0.0 0.0 0.00 0.00 0.00 99 1020.6
20260830083944 65 213 0.0 0.0 0.00 0.00 0.00 99 1020.3
20260830082739 65 239 0.0 0.0 0.00 0.00 0.00 99 1020.6
20260830082122 66 228 0.0 0.0 0.00 0.00 0.00 99 1020.3
20260830080947 66 223 0.0 0.0 0.00 0.00 0.00 99 1020.3
20260830080339 66 226 0.0 0.0 0.00 0.00 0.00 99 1020.3
20260830075120 65 230 0.0 0.0 0.00 0.00 0.00 99 1020.3
20260830074526 65 148 0.0 0.0 0.00 0.00 0.00 99 1020.3
20260830073940 64 222 0.0 0.0 0.00 0.00 0.00 99 1020.3
20260830072135 64 221 0.0 0.0 0.00 0.00 0.00 99 1020.3
20260830071541 64 234 0.0 0.0 0.00 0.00 0.00 99 1020.6
20260830070934 64 233 0.0 0.0 0.00 0.00 0.00 99 1020.6
20260830070347 64 233 0.0 0.0 0.00 0.00 0.00 99 1020.3
20260830064531 65 236 0.0 0.0 0.00 0.00 0.00 99 1020.6
20260830062738 65 233 0.0 0.0 0.00 0.00 0.00 99 1019.9
20260830061513 66 238 0.0 0.0 0.00 0.00 0.00 99 1020.6
20260830060930 66 237 0.0 0.0 0.00 0.00 0.00 99 1020.6
20260830055719 66 232 0.0 0.0 0.00 0.00 0.00 99 1020.6
20260830055121 66 233 0.0 0.0 0.00 0.00 0.00 99 1020.6
20260830054533 65 223 0.0 0.0 0.00 0.00 0.00 99 1020.6
20260830053943 66 229 0.0 0.0 0.00 0.00 0.00 99 1020.9
20260830053345 66 229 0.0 0.0 0.00 0.00 0.00 99 1020.6
20260830052734 66 229 0.0 0.0 0.00 0.00 0.00 99 1020.6
20260830052135 66 235 0.0 0.0 0.00 0.00 0.00 99 1020.6
20260830051541 66 230 0.0 0.0 0.00 0.00 0.00 99 1020.6
20260830050909 66 233 0.0 0.0 0.00 0.00 0.00 99 1020.6
20260830050348 66 235 0.0 0.0 0.00 0.00 0.00 99 1020.6
20260830045724 66 237 0.0 0.0 0.00 0.00 0.00 99 1020.6
20260830045150 66 234 0.0 0.0 0.00 0.00 0.00 99 1020.6
20260830044518 66 240 0.0 0.0 0.00 0.00 0.00 99 1020.6
20260830043913 66 229 0.0 0.0 0.00 0.00 0.00 99 1020.6
20260830043312 66 229 0.0 0.0 0.00 0.00 0.00 99 1020.3
20260830042735 67 230 0.0 0.0 0.00 0.00 0.00 99 1020.3
20260830042145 67 232 0.0 0.0 0.00 0.00 0.00 99 1020.6
20260830040925 67 231 0.0 0.0 0.00 0.00 0.00 99 1020.6
20260830040314 67 234 0.0 0.0 0.00 0.00 0.00 99 1020.6
20260830035750 67 231 0.0 0.0 0.00 0.00 0.00 99 1020.6
20260830035128 67 231 0.0 0.0 0.00 0.00 0.00 99 1020.6
20260830033928 68 234 0.0 0.0 0.00 0.00 0.00 99 1020.6
20260830033334 68 235 0.0 0.0 0.00 0.00 0.00 99 1020.3
20260830032721 68 235 0.0 0.0 0.00 0.00 0.00 99 1020.6
20260830032139 68 226 0.0 0.0 0.00 0.00 0.00 99 1020.6
20260830031535 68 232 0.0 0.0 0.00 0.00 0.00 99 1020.6
20260830030947 68 235 0.0 0.0 0.00 0.00 0.00 99 1020.6
20260830030336 68 233 0.0 0.0 0.00 0.00 0.00 99 1020.3
20260830025711 68 231 0.0 0.0 0.00 0.00 0.00 99 1020.3
20260830025136 68 231 0.0 0.0 0.00 0.00 0.00 99 1020.3
20260830024532 68 231 0.0 0.0 0.00 0.00 0.00 99 1020.3
20260830023326 68 230 0.0 0.0 0.00 0.00 0.00 99 1020.3
20260830022735 68 233 0.0 0.0 0.00 0.00 0.00 99 1020.3
20260830021523 68 231 0.0 0.0 0.00 0.00 0.00 99 1020.3
20260830020935 68 236 0.0 0.0 0.00 0.00 0.00 99 1020.3
20260830020326 69 234 0.0 0.0 0.00 0.00 0.00 99 1019.9
20260830015731 69 231 0.0 0.0 0.00 0.00 0.00 99 1019.9
20260830014536 69 227 0.0 0.0 0.00 0.00 0.00 99 1020.3
20260830013945 69 232 0.0 0.0 0.00 0.00 0.00 99 1019.9
20260830013307 69 232 0.0 0.0 0.00 0.00 0.00 99 1019.9
20260830012730 69 235 0.0 0.0 0.00 0.00 0.00 99 1019.6
20260830012146 70 234 0.0 0.0 0.00 0.00 0.00 99 1019.9